Regional Weather Roundup
Issued by NWS

Home | Current Version | Previous Version | Graphics & Text | Print | Product List | Glossary On
Versions: 1 2 3 4 5 6 7 8 9 10 11 12 13 14 15 16 17 18 19 20 21 22 23 24 25 26 27 28 29 30 31 32 33 34 35 36 37 38 39 40 41 42 43 44 45 46 47 48 49 50
000
ASUS44 KMEG 170110
RWRTN
TENNESSEE HOURLY STATE WEATHER ROUNDUP
NATIONAL WEATHER SERVICE MEMPHIS TN
800 PM CDT TUE SEP 16 2014

TNZ002-004-019-021-049-052-054-088>092-170200-
WEST TENNESSEE

CITY           SKY/WX    TMP DP  RH WIND       PRES   REMARKS
MEMPHIS INTL   MOCLDY    73  64  73 NE7       30.04R
NWS MEMPHIS      N/A     71 N/A N/A MISG        N/A
JACKSON        MOCLDY    66  61  84 NE5       30.05S
DYERSBURG      CLOUDY    66  52  59 N7        30.07S
UNION CITY     CLOUDY    64  57  77 N5        30.07S
PARIS          CLOUDY    63  55  77 NE3       30.08R
HUNTINGDON     CLOUDY    65  58  78 NE5       30.07S
LEXINGTON      CLEAR     63  59  88 CALM      30.05S
SAVANNAH       CLEAR     68  64  88 CALM      30.06R
$$

TNZ008-025-027-028-033-062-065-066-170200-
NORTH MIDDLE TENNESSEE

CITY           SKY/WX    TMP DP  RH WIND       PRES   REMARKS
NASHVILLE      PTCLDY    66  59  78 N6        30.06R
DICKSON        CLEAR     61  55  82 CALM      30.07S
PORTLAND       PTCLDY    63  57  82 CALM      30.06R
CLARKSVILLE    CLEAR     59  53  80 N6        30.07R
LEBANON        CLEAR     62  60  93 CALM      30.04S
SMYRNA         PTCLDY    67  63  87 CALM      30.06S
COOKEVILLE       N/A     63  63 100 CALM      30.06R VSB 1
LIVINGSTON     CLEAR     61  59  93 CALM      30.07R
GALLATIN       PTCLDY    65  60  83 NW6       30.07R
CROSSVILLE     PTCLDY    63  59  87 CALM      30.08S
$$

TNZ061-075-076-078-094-096-097-170200-
SOUTH MIDDLE TENNESSEE

CITY           SKY/WX    TMP DP  RH WIND       PRES   REMARKS
LEWISBURG      CLEAR     67  64  90 CALM      30.05S
FAYETTEVILLE   CLOUDY    66  64  94 N8        30.06R
TULLAHOMA      MOCLDY    66  63  88 N5        30.07R
WINCHESTER     CLOUDY    68  64  88 N6        30.06R
MCMINNVILLE      N/A     64  64 100 CALM      30.06S
COLUMBIA       CLEAR     66  64  94 CALM      30.05R
SHELBYVILLE    CLOUDY    66  64  94 NE3       30.07R
$$

TNZ017-018-042-046-047-170200-
NORTHEAST TENNESSEE

CITY           SKY/WX    TMP DP  RH WIND       PRES   REMARKS
TRI CITIES     MOCLDY    69  59  70 W5        30.03R
ELIZABETHTON   CLOUDY    64  61  88 CALM      30.04R
$$

TNZ012-013-036-069-073-074-170200-
CENTRAL EAST TENNESSEE

CITY           SKY/WX    TMP DP  RH WIND       PRES   REMARKS
KNOXVILLE      CLOUDY    70  63  78 N8        30.02R
OAK RIDGE      MOCLDY    68  63  84 CALM      30.05R
GATLINBURG     MOCLDY    70  64  83 N5        30.03R
MORRISTOWN     CLEAR     66  63  88 W5        30.05R
$$

TNZ083-085-099-170200-
SOUTHEAST TENNESSEE

CITY           SKY/WX    TMP DP  RH WIND       PRES   REMARKS
CHATTANOOGA    PTCLDY    75  66  73 N12       30.01R
$$

SKY/WX REPORTED AS FAIR MEANS FEW OR NO CLOUDS BELOW
12 THOUSAND FEET.



USA.gov is the U.S. government's official web portal to all federal, state and local government web resources and services.